Location: Newark
(43.0000°N, 1.6781°W)
Time: 00:32:19
(UTC+00:00)

LilacSat-2 - Pass Details

Date: 02 December 2022
Orbit: 504 x 521 km, 97.5° (Epoch: 08 February)

Event Time Altitude Azimuth Distance (km) Brightness Sun altitude
Rises 06:01:22 0° 13° (NNE) 2,622 ? -13.8°
Reaches altitude 10° 06:03:28 10° 15° (NNE) 1,729 ? -13.5°
Maximum altitude 06:07:12 79° 103° (ESE) 521 ? -12.8°
Drops below altitude 10° 06:10:52 10° 189° (S) 1,710 ? -12.2°
Sets 06:12:57 0° 191° (S) 2,589 ? -11.8°
